Main page
METAR-TAF:

METAR-TAF

Airports :

Ottawa Municipal Airport

Ottawa, Kansas, United States

latitude: 38-32-20N, longitude: 095-15-10W, elevation: 968 ft

Current weather observation

The report was made 25 minutes ago, at 09:35 UTC
Wind 10 mph from the Southeast
Temperature 72°F
Humidity 94%
Pressure 29.95 in. Hg
Visibility: 10 miles
Clear sky

METAR: KOWI 140935Z AUTO 13009KT 10SM CLR 22/21 A2995 RMK AO2 PWINO

Time: 05:00 (10:00 UTC)


TAF: missing

Weather observations and forecasts of more than 4000 airports (METAR and TAF reports).

The available stations are represented by yellow and red dots on the map.

Hover mouse over dot to see the name of the station.

Then click to see weather observations and forecasts.

To change the map : click on the green buttons with a black cross to zoom in, on the green button with a dash to zoom out, or on the green arrows for adjacent maps.


METAR-TAF: